[[{"header":{"parameterUnit":"m.s-1","parameterCategory":1,"la1":30.2991,"la2":30.254,"lo1":-89.0895,"lo2":-89.0444,"dy":0.0017,"dx":0.0017,"nx":28,"ny":28,"refTime":"2024-05-16T09:00:00:Z","depth":0,"parameterNumber":2,"parameterNumberName":"U-component_of_WINDS"},"data":[0,0,0,0,0,0,0,0,0,0,0,0,0,0,0,0,0,0,0,0,0,0,0,0,0,0,0,0,0,0,0,0,0,0,0,0,0,0,0,0,0,0,0,0,0,0,0,0,0,0,0,0,0,0,0,0,0,0,-0.2354,-0.2355,0,-0.2435,-0.2436,-0.2437,-0.2467,-0.2467,-0.2467,-0.2466,-0.2551,-0.2553,-0.2556,0,0,0,0,0,0,0,0,0,0,0,0,0,-0.2226,-0.2228,-0.2354,-0.2355,-0.2356,-0.2435,-0.2436,-0.2437,-0.2467,-0.2467,-0.2467,-0.2466,-0.255,-0.2553,-0.2556,0,0,0,0,0,0,0,0,0,0,0,0,0,-0.2292,-0.2229,-0.2354,-0.238,-0.2384,-0.2435,-0.2436,-0.2438,-0.2467,-0.2467,-0.2467,-0.2466,-0.2549,-0.2553,-0.2557,-0.2588,0,0,-0.2568,-0.257,0,0,0,0,0,0,0,0,-0.2288,-0.2297,-0.2375,-0.2379,-0.2382,-0.2441,-0.2422,-0.2488,-0.2467,-0.2436,-0.2466,-0.2466,-0.2515,-0.2521,-0.2537,-0.2592,-0.2595,-0.2568,-0.2571,-0.2572,-0.2573,0,0,0,0,0,0,0,-0.2283,-0.2293,-0.2386,-0.2377,-0.2381,-0.2389,-0.2398,-0.2435,-0.2476,-0.2438,-0.2441,-0.245,-0.2517,-0.2534,-0.254,-0.2597,-0.2568,-0.2572,-0.2574,-0.2575,-0.2681,-0.2681,0,0,0,0,0,0,-0.2274,-0.2289,-0.2384,-0.2389,-0.2333,-0.2391,-0.2401,-0.2422,-0.2476,-0.2484,-0.245,-0.2451,-0.2528,-0.2535,-0.2543,-0.2583,-0.2572,-0.2576,-0.2578,-0.268,-0.2681,-0.2681,0,0,0,0,0,0,-0.2271,-0.2282,-0.238,-0.234,-0.2353,-0.2394,-0.2417,-0.2424,-0.2441,-0.2485,-0.2493,-0.246,-0.2528,-0.2537,-0.2576,-0.2586,-0.2577,-0.2581,-0.2679,-0.268,-0.2681,-0.2663,0,0,0,0,0,0,-0.2268,-0.2281,-0.2293,-0.234,-0.2355,-0.2412,-0.2418,-0.2426,-0.2448,-0.2449,-0.2496,-0.2504,-0.2528,-0.257,-0.258,-0.2591,-0.2584,-0.2679,-0.268,-0.2681,-0.2663,-0.2663,-0.2663,0,0,0,0,0,-0.2263,-0.2285,-0.2294,-0.2305,-0.237,-0.2412,-0.2421,-0.2448,-0.2448,-0.2461,-0.2489,-0.2502,-0.2583,-0.2574,-0.2585,-0.2598,-0.2678,-0.2679,-0.2681,-0.2663,-0.2663,-0.2663,0,0,0,0,0,0,-0.2239,-0.2292,-0.2302,-0.2339,-0.2371,-0.2417,-0.2434,-0.2448,-0.248,-0.2481,-0.2514,-0.2524,-0.256,-0.2583,-0.2572,-0.2631,-0.2632,-0.2635,-0.2615,-0.2615,-0.2615,-0.2609,-0.2587,0,0,0,0,0,-0.2238,-0.2268,-0.2312,-0.2341,-0.2357,-0.2392,-0.2412,-0.243,-0.2464,-0.2478,-0.2509,-0.2542,-0.2575,-0.2597,-0.2629,-0.2666,-0.2677,-0.268,-0.2681,-0.2681,-0.2683,-0.2705,-0.2707,-0.2685,-0.2685,-0.2685,0,0,-0.2237,-0.2269,-0.2286,-0.2337,-0.2364,-0.2394,-0.2404,-0.2435,-0.2458,-0.2483,-0.2521,-0.2545,-0.2585,-0.2622,-0.2641,-0.2643,-0.2691,-0.2682,-0.2682,-0.2685,-0.2706,-0.2708,-0.271,-0.2686,-0.2686,-0.2686,0,0,-0.225,-0.2277,-0.2304,-0.2331,-0.2371,-0.2395,-0.2401,-0.2445,-0.2462,-0.2501,-0.252,-0.2548,-0.2604,-0.2632,-0.2653,-0.2676,-0.2689,-0.2686,-0.2687,-0.2707,-0.2709,-0.2711,-0.2719,-0.2722,-0.2688,-0.2688,-0.2688,0,-0.2243,-0.2289,-0.2317,-0.2347,-0.2369,-0.2393,-0.2421,-0.2445,-0.2494,-0.2509,-0.251,-0.2582,-0.261,-0.2654,-0.266,-0.2676,-0.2685,-0.2681,-0.2706,-0.2708,-0.271,-0.2719,-0.2722,-0.2687,-0.2688,-0.2688,-0.2688,0,-0.2279,-0.231,-0.2327,-0.2373,-0.2398,-0.2427,-0.2459,-0.248,-0.2496,-0.252,-0.2559,-0.2594,-0.2634,-0.2646,-0.2662,-0.2693,-0.2693,-0.27,-0.2702,-0.2711,-0.272,-0.2723,-0.2686,-0.2687,-0.2687,-0.2687,0,0,-0.2279,-0.234,-0.2346,-0.2367,-0.2413,-0.2438,-0.2468,-0.2507,-0.2525,-0.2558,-0.2584,-0.2631,-0.2638,-0.2662,-0.2681,-0.2699,-0.2715,-0.2704,-0.2705,-0.2705,-0.2752,-0.2747,-0.275,-0.2724,-0.2725,-0.2726,-0.2749,0,-0.2298,-0.2353,-0.2379,-0.2422,-0.2451,-0.2474,-0.2501,-0.2532,-0.2555,-0.2584,-0.2609,-0.2642,-0.2648,-0.2663,-0.2681,-0.2709,-0.2725,-0.2708,-0.275,-0.2751,-0.2739,-0.2754,-0.2749,-0.2769,-0.2752,-0.2753,-0.2753,0,-0.2328,-0.236,-0.2406,-0.2448,-0.2462,-0.2485,-0.2523,-0.255,-0.2586,-0.2601,-0.2628,-0.2647,-0.268,-0.2679,-0.2725,-0.2713,-0.2732,-0.2748,-0.2749,-0.2754,-0.2753,-0.276,-0.2776,-0.2779,-0.2759,-0.2758,-0.2758,0,-0.2323,-0.2379,-0.2413,-0.2431,-0.2481,-0.2497,-0.2519,-0.2554,-0.2576,-0.2609,-0.2624,-0.2661,-0.2681,-0.2709,-0.2737,-0.2734,-0.2781,-0.2782,-0.2795,-0.2794,-0.2804,-0.2803,-0.2823,-0.2816,-0.2815,-0.2815,-0.2815,0,-0.2342,-0.2369,-0.2412,-0.2433,-0.2465,-0.2495,-0.2525,-0.2549,-0.258,-0.2607,-0.2629,-0.2654,-0.2689,-0.2719,-0.2741,-0.2776,-0.2785,-0.2799,-0.2804,-0.2797,-0.2795,-0.281,-0.2809,-0.2816,-0.2816,-0.2816,-0.2816,0,-0.2343,-0.2372,-0.2412,-0.2456,-0.2468,-0.2489,-0.2527,-0.2549,-0.2573,-0.2607,-0.2616,-0.2654,-0.2689,-0.272,-0.2768,-0.2783,-0.2819,-0.2826,-0.2806,-0.2809,-0.282,-0.2819,-0.2851,-0.2857,-0.2845,-0.2845,-0.2845,0,-0.2353,-0.2374,-0.2421,-0.244,-0.2461,-0.2492,-0.2514,-0.2544,-0.2567,-0.2609,-0.2626,-0.2663,-0.2694,-0.275,-0.2782,-0.2818,-0.2826,-0.2835,-0.2832,-0.2824,-0.2827,-0.2825,-0.2828,-0.2835,-0.2835,-0.2835,-0.2835,0,-0.2367,-0.2381,-0.2412,-0.2448,-0.2473,-0.2503,-0.2534,-0.2549,-0.2585,-0.2609,-0.2645,-0.2669,-0.2717,-0.2754,-0.2793,-0.2817,-0.2832,-0.2836,-0.2841,-0.2833,-0.2821,-0.2828,-0.2807,-0.2835,-0.2835,-0.2835,-0.2835,-0.2835,-0.2374,-0.2394,-0.2429,-0.2463,-0.2489,-0.2517,-0.254,-0.2566,-0.2597,-0.2638,-0.2654,-0.2691,-0.2727,-0.2782,-0.2805,-0.2835,-0.2837,-0.2844,-0.2846,-0.2847,-0.2846,-0.2816,-0.2842,-0.2842,-0.2842,-0.2842,-0.2842,0,-0.2389,-0.2413,-0.2444,-0.2486,-0.2512,-0.2524,-0.2558,-0.258,-0.2612,-0.2644,-0.2674,-0.2716,-0.2752,-0.2786,-0.2824,-0.2841,-0.2849,-0.285,-0.2849,-0.2854,-0.2842,-0.2834,-0.2843,-0.2843,-0.2843,-0.2843,-0.2843,-0.2843,-0.2401,-0.2436,-0.2453,-0.2501,-0.2525,-0.2561,-0.258,-0.2606,-0.2632,-0.2677,-0.2707,-0.2729,-0.2762,-0.2802,-0.2836,-0.2845,-0.2858,-0.2857,-0.2868,-0.2856,-0.2855,-0.2855,-0.2847,-0.2859,-0.2859,-0.2878,-0.2878,-0.2878]},{"header":{"parameterUnit":"m.s-1","parameterCategory":1,"la1":30.2991,"la2":30.254,"lo1":-89.0895,"lo2":-89.0444,"dy":0.0017,"dx":0.0017,"nx":28,"ny":28,"refTime":"2024-05-16T09:00:00:Z","depth":0,"parameterNumber":3,"parameterNumberName":"V-component_of_WINDS"},"data":[0,0,0,0,0,0,0,0,0,0,0,0,0,0,0,0,0,0,0,0,0,0,0,0,0,0,0,0,0,0,0,0,0,0,0,0,0,0,0,0,0,0,0,0,0,0,0,0,0,0,0,0,0,0,0,0,0,0,-2.1544,-2.1544,0,-2.1566,-2.1566,-2.1566,-2.1562,-2.1562,-2.1562,-2.1561,-2.1581,-2.1582,-2.1582,0,0,0,0,0,0,0,0,0,0,0,0,0,-2.1497,-2.1498,-2.1544,-2.1544,-2.1545,-2.1566,-2.1566,-2.1566,-2.1562,-2.1562,-2.1561,-2.1561,-2.158,-2.1581,-2.1582,0,0,0,0,0,0,0,0,0,0,0,0,0,-2.1518,-2.1498,-2.1544,-2.1545,-2.1546,-2.1566,-2.1566,-2.1566,-2.1562,-2.1562,-2.1561,-2.1561,-2.158,-2.1581,-2.1583,-2.1602,0,0,-2.1587,-2.1587,0,0,0,0,0,0,0,0,-2.1517,-2.152,-2.1545,-2.1545,-2.1546,-2.1561,-2.1557,-2.1578,-2.1563,-2.1556,-2.1561,-2.1561,-2.1574,-2.1576,-2.1581,-2.1603,-2.1604,-2.1587,-2.1587,-2.1588,-2.1588,0,0,0,0,0,0,0,-2.1515,-2.1519,-2.1552,-2.1545,-2.1546,-2.1544,-2.1546,-2.1561,-2.1568,-2.1556,-2.1556,-2.1559,-2.1574,-2.158,-2.1582,-2.1604,-2.1587,-2.1588,-2.1589,-2.1589,-2.1643,-2.1643,0,0,0,0,0,0,-2.1514,-2.1517,-2.1552,-2.1553,-2.153,-2.1545,-2.1548,-2.1556,-2.1568,-2.1569,-2.1559,-2.1559,-2.1578,-2.158,-2.1582,-2.1606,-2.1588,-2.1589,-2.159,-2.1642,-2.1643,-2.1643,0,0,0,0,0,0,-2.1513,-2.1517,-2.1551,-2.1535,-2.154,-2.1547,-2.1556,-2.1557,-2.1563,-2.157,-2.1571,-2.1564,-2.1578,-2.1581,-2.1597,-2.1606,-2.159,-2.1591,-2.1641,-2.1642,-2.1643,-2.1652,0,0,0,0,0,0,-2.1512,-2.1517,-2.1524,-2.1536,-2.154,-2.1566,-2.1557,-2.1558,-2.1565,-2.1565,-2.1575,-2.1576,-2.1577,-2.1595,-2.1599,-2.1608,-2.1592,-2.164,-2.1642,-2.1643,-2.1651,-2.1654,-2.1656,0,0,0,0,0,-2.151,-2.1525,-2.1525,-2.1529,-2.155,-2.1567,-2.1569,-2.1572,-2.1566,-2.1574,-2.1579,-2.1575,-2.1605,-2.1597,-2.1601,-2.161,-2.164,-2.1641,-2.1643,-2.165,-2.1653,-2.1656,0,0,0,0,0,0,-2.1514,-2.1527,-2.1526,-2.1546,-2.1556,-2.1566,-2.1576,-2.1575,-2.1585,-2.1584,-2.1586,-2.1588,-2.1605,-2.1609,-2.16,-2.163,-2.1622,-2.1624,-2.1626,-2.1629,-2.1631,-2.1629,-2.1593,0,0,0,0,0,-2.1517,-2.153,-2.1541,-2.1557,-2.1562,-2.1568,-2.1575,-2.1577,-2.1586,-2.1589,-2.1595,-2.1604,-2.1615,-2.1622,-2.1633,-2.1652,-2.1654,-2.1661,-2.1663,-2.1665,-2.1666,-2.1677,-2.168,-2.1648,-2.1648,-2.1648,0,0,-2.1524,-2.1533,-2.154,-2.1558,-2.1566,-2.1578,-2.1571,-2.1585,-2.1594,-2.1591,-2.1608,-2.1612,-2.1622,-2.164,-2.1648,-2.1644,-2.1676,-2.1667,-2.1668,-2.1668,-2.1678,-2.1681,-2.1684,-2.1649,-2.1649,-2.1649,0,0,-2.1543,-2.1551,-2.1566,-2.1574,-2.1585,-2.1589,-2.1593,-2.1604,-2.1608,-2.1624,-2.1623,-2.1633,-2.1653,-2.166,-2.1666,-2.1688,-2.1686,-2.1692,-2.1702,-2.1713,-2.1715,-2.1717,-2.1725,-2.1728,-2.1694,-2.1694,-2.1694,0,-2.1549,-2.1569,-2.1573,-2.1587,-2.1595,-2.1594,-2.1609,-2.1616,-2.163,-2.1635,-2.1631,-2.1656,-2.1662,-2.1682,-2.1688,-2.1693,-2.1696,-2.169,-2.1715,-2.1717,-2.1719,-2.1726,-2.1729,-2.1694,-2.1694,-2.1694,-2.1694,0,-2.1576,-2.159,-2.16,-2.1615,-2.1624,-2.1639,-2.1644,-2.1653,-2.1654,-2.1658,-2.1675,-2.1683,-2.1696,-2.1701,-2.1701,-2.1721,-2.1718,-2.1714,-2.1706,-2.1722,-2.1729,-2.1732,-2.1695,-2.1695,-2.1695,-2.1695,0,0,-2.1596,-2.1615,-2.1618,-2.1625,-2.1639,-2.1649,-2.1664,-2.1677,-2.1684,-2.1694,-2.1706,-2.1723,-2.172,-2.1727,-2.1728,-2.1737,-2.1754,-2.1732,-2.1732,-2.1735,-2.1776,-2.1778,-2.1781,-2.1753,-2.1754,-2.1754,-2.1775,0,-2.1616,-2.1642,-2.1647,-2.1669,-2.1682,-2.1682,-2.1695,-2.1704,-2.1709,-2.172,-2.1725,-2.1737,-2.1732,-2.1736,-2.1745,-2.175,-2.1762,-2.1749,-2.1763,-2.1763,-2.176,-2.1785,-2.1787,-2.1806,-2.1778,-2.1778,-2.1778,0,-2.1641,-2.1654,-2.1678,-2.1691,-2.1696,-2.1707,-2.172,-2.1731,-2.1741,-2.1744,-2.1753,-2.1753,-2.1768,-2.176,-2.1779,-2.177,-2.1776,-2.1779,-2.178,-2.1781,-2.1771,-2.1786,-2.1813,-2.1815,-2.1783,-2.1782,-2.1782,0,-2.1653,-2.1676,-2.1693,-2.1699,-2.1714,-2.1722,-2.1729,-2.1739,-2.1747,-2.1758,-2.1763,-2.1775,-2.1782,-2.1791,-2.1795,-2.1789,-2.1814,-2.1806,-2.1816,-2.1816,-2.182,-2.182,-2.1848,-2.1826,-2.1826,-2.1826,-2.1826,0,-2.1674,-2.1688,-2.1699,-2.1709,-2.1726,-2.1731,-2.1747,-2.1753,-2.1762,-2.1774,-2.1775,-2.1785,-2.179,-2.1801,-2.1804,-2.1819,-2.1822,-2.1825,-2.1825,-2.1824,-2.1824,-2.1827,-2.1826,-2.1826,-2.1826,-2.1826,-2.1826,0,-2.1689,-2.1697,-2.1716,-2.1729,-2.1733,-2.1745,-2.1756,-2.1766,-2.1771,-2.1786,-2.1789,-2.1797,-2.181,-2.1816,-2.1831,-2.1833,-2.1851,-2.1851,-2.1848,-2.1847,-2.1857,-2.1856,-2.1888,-2.1892,-2.1868,-2.1868,-2.1868,0,-2.1701,-2.1713,-2.1728,-2.1737,-2.1744,-2.1757,-2.1765,-2.1771,-2.178,-2.1794,-2.1802,-2.1815,-2.1826,-2.1847,-2.1854,-2.1866,-2.1865,-2.1876,-2.1867,-2.1866,-2.1865,-2.1864,-2.1865,-2.1877,-2.1877,-2.1878,-2.1878,0,-2.1722,-2.1726,-2.1739,-2.1753,-2.1764,-2.1775,-2.1786,-2.1792,-2.18,-2.1809,-2.1824,-2.1832,-2.1849,-2.1862,-2.1875,-2.1881,-2.188,-2.1881,-2.1884,-2.1882,-2.188,-2.1881,-2.1851,-2.188,-2.1879,-2.1879,-2.1879,-2.1879,-2.1736,-2.1746,-2.1759,-2.1773,-2.1783,-2.1793,-2.1803,-2.1811,-2.1823,-2.1838,-2.1841,-2.1856,-2.1866,-2.1884,-2.189,-2.1901,-2.1898,-2.1903,-2.1904,-2.1904,-2.1905,-2.1879,-2.1904,-2.1904,-2.1904,-2.1904,-2.1904,0,-2.1756,-2.1765,-2.1778,-2.1794,-2.1806,-2.1806,-2.1818,-2.1827,-2.1841,-2.1852,-2.1863,-2.1879,-2.1892,-2.1901,-2.1914,-2.1921,-2.1921,-2.1924,-2.1923,-2.1924,-2.1907,-2.1903,-2.1924,-2.1924,-2.1924,-2.1924,-2.1924,-2.1924,-2.1768,-2.1786,-2.1791,-2.1813,-2.1821,-2.1837,-2.1844,-2.1854,-2.1862,-2.1881,-2.1892,-2.1898,-2.1908,-2.1922,-2.1933,-2.1935,-2.194,-2.1943,-2.1945,-2.1928,-2.1926,-2.1924,-2.192,-2.1944,-2.1944,-2.1961,-2.1961,-2.1962]}]]